Regional Weather Roundup
Issued by NWS

Home | Current Version | Previous Version | Text Only | Print | Product List | Glossary On
Versions: 1 2 3 4 5 6 7 8 9 10 11 12 13 14 15 16 17 18 19 20 21 22 23 24 25 26 27 28 29 30 31 32 33 34 35 36 37 38 39 40 41 42 43 44 45 46 47 48 49 50
000
ASUS46 KSEW 201810
RWRWA

WASHINGTON REGIONAL WEATHER ROUNDUP
NATIONAL WEATHER SERVICE SEATTLE WA
1000 AM PST SAT DEC 20 2014

NOTE:"FAIR" INDICATES FEW OR NO CLOUDS BELOW 12,000 FEET WITH NO
SIGNIFICANT WEATHER AND/OR OBSTRUCTIONS TO VISIBILITY.

WAZ505-507>509-201900-
SEATTLE, TACOMA, EVERETT, AND VICINITY

CITY           SKY/WX    TMP DP  RH WIND       PRES   REMARKS
EVERETT        CLOUDY    45  41  86 SE9       29.63R
6HR MIN TEMP:  43; 6HR MAX TEMP:  45; 6HR PCP:  0.06;

BOEING FIELD   LGT RAIN  48  44  86 SE3       29.64S FOG
6HR MIN TEMP:  46; 6HR MAX TEMP:  48; 6HR PCP:  0.24;

RENTON         LGT RAIN  46  44  93 VRB5      29.64R FOG
6HR MIN TEMP:  45; 6HR MAX TEMP:  46; 6HR PCP:  0.18;

SEATAC AIRPORT LGT RAIN  45  43  93 E9        29.63S FOG
6HR MIN TEMP:  44; 6HR MAX TEMP:  46; 6HR PCP:  0.22;

JBLM-MCCHORD   LGT RAIN  45  45 100 E2        29.62S FOG
                                      6HR PCP:  0.11;

PUYALLUP       NOT AVBL
JBLM-FT LEWIS  CLOUDY    45  45 100 NE2       29.60F
TACOMA NARROWS LGT RAIN  45  43  93 NE3       29.62S FOG
6HR MIN TEMP:  44; 6HR MAX TEMP:  47; 6HR PCP:  0.17;

$$

WAZ001-503-506-510-514-515-201900-
NORTH INTERIOR

CITY           SKY/WX    TMP DP  RH WIND       PRES   REMARKS
BELLINGHAM     CLOUDY    45  41  86 VRB3      29.59F
6HR MIN TEMP:  44; 6HR MAX TEMP:  50; 6HR PCP:  0.05;

FRIDAY HARBOR  CLOUDY    48  41  76 E18G28    29.58R
6HR MIN TEMP:  47; 6HR MAX TEMP:  48; 6HR PCP:  0.01;

EASTSOUND      PTSUNNY   50  39  66 S7G20     29.54R
PORT ANGELES   PTSUNNY   44  42  93 N3        29.52R
6HR MIN TEMP:  39; 6HR MAX TEMP:  44; 6HR PCP:  0.02;

NAS WHIDBEY    PTSUNNY   51  40  65 SE14G29   29.58R
6HR MIN TEMP:  48; 6HR MAX TEMP:  51; 6HR PCP:  0.01;

BURLINGTON     CLOUDY    48  43  81 E13G22    29.61S
$$

WAZ020-022-039-040-504-511-512-201900-
SOUTHWEST INTERIOR

CITY           SKY/WX    TMP DP  RH WIND       PRES   REMARKS
SHELTON        LGT RAIN  45  43  93 N8        29.58S FOG
6HR MIN TEMP:  45; 6HR MAX TEMP:  46; 6HR PCP:  0.65;

OLYMPIA        LGT RAIN  47  45  93 S9        29.61S FOG
6HR MIN TEMP:  45; 6HR MAX TEMP:  47; 6HR PCP:  0.26;

CHEHALIS       LGT RAIN  48  48 100 S10G17    29.63R
KELSO          CLOUDY    50  45  81 SE18G32   29.68R
6HR MIN TEMP:  48; 6HR MAX TEMP:  50; 6HR PCP:  0.41;

VANCOUVER      LGT RAIN  46  43  89 E10       29.71S
6HR MIN TEMP:  45; 6HR MAX TEMP:  47; 6HR PCP:  0.38;

SCAPPOOSE, OR  LGT RAIN  50  47  89 SE9       29.69S
6HR MIN TEMP:  46; 6HR MAX TEMP:  50; 6HR PCP:  0.64;

PORTLAND, OR   LGT RAIN  45  44  97 E17       29.72R
6HR MIN TEMP:  45; 6HR MAX TEMP:  47; 6HR PCP:  0.35;

$$

WAZ021-516-517-201900-
WASHINGTON COAST

CITY           SKY/WX    TMP DP  RH WIND       PRES   REMARKS
FORKS          LGT RAIN  49  48  97 SE5       29.48F FOG
6HR MIN TEMP:  46; 6HR MAX TEMP:  49; 6HR PCP:  0.23;

HOQUIAM        RAIN      48  47  96 NE9       29.56R VSB 1
6HR MIN TEMP:  47; 6HR MAX TEMP:  48; 6HR PCP:  0.50;

ASTORIA, OR    LGT RAIN  56  54  93 SW14G25   29.59R FOG
6HR MIN TEMP:  47; 6HR MAX TEMP:  56; 6HR PCP:  1.28;

$$

WAZ019-023-024-040-518-519-201900-
CASCADE MOUNTAINS AND COLUMBIA GORGE

CITY           SKY/WX    TMP DP  RH WIND       PRES   REMARKS
STAMPEDE PASS  NOT AVBL
TROUTDALE, OR  LGT RAIN  45  42  89 E15       29.72S
6HR MIN TEMP:  45; 6HR MAX TEMP:  47; 6HR PCP:  0.17;

THE DALLES, OR CLOUDY    42  41  96 NW6       29.79F
6HR MIN TEMP:  40; 6HR MAX TEMP:  42; 6HR PCP:  0.06;

$$

WAZ026-027-041>044-520-521-201900-
EAST SLOPES

CITY           SKY/WX    TMP DP  RH WIND       PRES   REMARKS
OMAK           LGT SNOW  33  32  96 CALM      29.80F FOG
6HR MIN TEMP:  33; 6HR MAX TEMP:  35; 6HR PCP:  0.21;

WENATCHEE      LGT RAIN  35  33  92 NW7       29.78S
6HR MIN TEMP:  35; 6HR MAX TEMP:  36; 6HR PCP:  0.11;

ELLENSBURG     CLOUDY    42  37  82 E6        29.73F
6HR MIN TEMP:  36; 6HR MAX TEMP:  42; 6HR PCP:  0.11;

YAKIMA         CLOUDY    41  38  89 CALM      29.76F FOG
6HR MIN TEMP:  38; 6HR MAX TEMP:  41; 6HR PCP:  0.09;

$$

WAZ028-034-035-201900-
COLUMBIA BASIN

CITY           SKY/WX    TMP DP  RH WIND       PRES   REMARKS
EPHRATA        LGT RAIN  39  38  96 N6        29.77F
6HR MIN TEMP:  36; 6HR MAX TEMP:  39; 6HR PCP:  0.13;

MOSES LAKE     LGT RAIN  41  40  96 SE9       29.78S FOG
6HR MIN TEMP:  35; 6HR MAX TEMP:  41; 6HR PCP:  0.11;

PASCO          CLOUDY    41  41 100 SE3       29.80F
6HR MIN TEMP:  37; 6HR MAX TEMP:  41; 6HR PCP:  0.09;

HERMISTON, OR  CLOUDY    48  42  80 SE7       29.77F
6HR MIN TEMP:  39; 6HR MAX TEMP:  48; 6HR PCP:  0.06;

$$

WAZ036>038-201900-
NORTHEAST WASHINGTON

CITY           SKY/WX    TMP DP  RH WIND       PRES   REMARKS
SPOKANE GEIGER LGT RAIN  37  35  92 SE9       29.82F
6HR MIN TEMP:  34; 6HR MAX TEMP:  37; 6HR PCP:  0.03;

SPOKANE FELTS  CLOUDY    42  34  73 E3        29.84F
6HR MIN TEMP:  35; 6HR MAX TEMP:  42;

FAIRCHILD AFB  LGT RAIN  37  37  99 SE10      29.81F
6HR MIN TEMP:  33; 6HR MAX TEMP:  37; 6HR PCP:  0.02;

COEURDALENE,ID PTSUNNY   36  32  87 CALM      29.83F
6HR MIN TEMP:  32; 6HR MAX TEMP:  36;

DEER PARK      CLOUDY    37  36  96 CALM      29.83F
6HR MIN TEMP:  34; 6HR MAX TEMP:  37;

$$

WAZ029>033-201900-
SOUTHEAST WASHINGTON

CITY           SKY/WX    TMP DP  RH WIND       PRES   REMARKS
PULLMAN        CLOUDY    38  35  89 E15       29.84F
6HR MIN TEMP:  35; 6HR MAX TEMP:  38; 6HR PCP: TRACE;

LEWISTON, ID   PTSUNNY   41  37  86 E7        29.87S
6HR MIN TEMP:  35; 6HR MAX TEMP:  41; 6HR PCP: TRACE;

WALLA WALLA    LGT RAIN  50  41  71 S14       29.81S
6HR MIN TEMP:  47; 6HR MAX TEMP:  52; 6HR PCP:  0.06;

PENDLETON, OR  LGT RAIN  46  40  79 SE5       29.79F
6HR MIN TEMP:  40; 6HR MAX TEMP:  48; 6HR PCP:  0.05;

$$


USA.gov is the U.S. government's official web portal to all federal, state and local government web resources and services.